THY2LY LTFM-LTAI

Flight info

Callsign THY2LY
Flight time N/A
Altitude 35000
Route RATVU UT35 BABSA
Aircraft A332/H-SDE3GHIJ2J3J5M1RVWXY/LB2D1

Departure

Time 2026-02-18 06:59
Airport İstanbul Airport (LTFM)

Arrival

Time N/A
Airport Antalya International Airport (LTAI)
Time Latitude Longitude Altitude Speed Heading
2026-02-18 06:51 41.26193 28.74852 317 ft 0 kts 251°
2026-02-18 06:53 41.26198 28.74869 317 ft 2 kts 250°
2026-02-18 06:53 41.26203 28.74889 317 ft 2 kts 250°
2026-02-18 06:53 41.26208 28.74908 317 ft 2 kts 250°
2026-02-18 06:54 41.26214 28.74927 317 ft 2 kts 250°
2026-02-18 06:54 41.26219 28.74946 315 ft 2 kts 250°
2026-02-18 06:54 41.26224 28.74965 317 ft 2 kts 250°
2026-02-18 06:55 41.26226 28.75007 315 ft 3 kts 319°
2026-02-18 06:55 41.26211 28.75018 314 ft 2 kts 341°
2026-02-18 06:55 41.26202 28.75022 315 ft 0 kts 341°
2026-02-18 06:56 41.26205 28.75021 317 ft 1 kts 341°
2026-02-18 06:56 41.26209 28.75021 317 ft 0 kts 358°
2026-02-18 06:56 41.26212 28.75025 317 ft 1 kts 22°
2026-02-18 06:56 41.26218 28.75034 317 ft 4 kts 43°
2026-02-18 06:57 41.26234 28.75072 297 ft 6 kts 73°
2026-02-18 06:57 41.26238 28.75123 317 ft 9 kts 86°
2026-02-18 06:57 41.26239 28.75232 318 ft 15 kts 92°
2026-02-18 06:57 41.26235 28.75392 318 ft 18 kts 92°
2026-02-18 06:58 41.26238 28.75557 318 ft 18 kts 88°
2026-02-18 06:58 41.26269 28.75648 318 ft 8 kts 36°
2026-02-18 06:58 41.26304 28.75665 319 ft 4 kts
2026-02-18 06:59 41.26529 28.75661 315 ft 65 kts 359°
2026-02-18 06:59 41.27227 28.75654 303 ft 134 kts 358°
2026-02-18 06:59 41.28360 28.75626 409 ft 183 kts 354°
2026-02-18 06:59 41.29706 28.75631 1112 ft 206 kts
2026-02-18 07:00 41.30981 28.76737 1951 ft 246 kts 51°
2026-02-18 07:00 41.31169 28.79249 1472 ft 332 kts 114°
2026-02-18 07:00 41.29664 28.81934 1082 ft 380 kts 130°
2026-02-18 07:00 41.28014 28.84320 3416 ft 341 kts 135°
2026-02-18 07:01 41.26248 28.86378 4803 ft 342 kts 146°
2026-02-18 07:01 41.24296 28.88425 5318 ft 371 kts 145°
2026-02-18 07:01 41.22295 28.90554 6674 ft 362 kts 146°
2026-02-18 07:01 41.20402 28.92593 9110 ft 329 kts 146°
2026-02-18 07:02 41.18747 28.94408 11339 ft 295 kts 145°
2026-02-18 07:02 41.17234 28.96096 13004 ft 283 kts 144°
2026-02-18 07:02 41.15729 28.97782 13893 ft 288 kts 144°
2026-02-18 07:03 41.12579 29.01284 15174 ft 300 kts 144°
2026-02-18 07:03 41.10970 29.03068 15853 ft 303 kts 144°
2026-02-18 07:03 41.09342 29.04870 16557 ft 306 kts 144°
2026-02-18 07:03 41.07697 29.06689 17254 ft 308 kts 143°
2026-02-18 07:04 41.05959 29.08408 17525 ft 321 kts 150°
2026-02-18 07:04 41.04267 29.10656 15933 ft 386 kts 116°
2026-02-18 07:04 41.04215 29.14595 14364 ft 452 kts 72°
2026-02-18 07:04 41.05199 29.18031 17801 ft 390 kts 68°
2026-02-18 07:05 41.06209 29.21164 19884 ft 350 kts 68°
2026-02-18 07:05 41.07120 29.23978 21759 ft 314 kts 68°
2026-02-18 07:05 41.07943 29.26500 23309 ft 283 kts 69°
2026-02-18 07:05 41.08347 29.27729 23905 ft 268 kts 69°